Lowell, ID

11:19 AM MDT on June 25, 2017 (GMT -0600)
Lowell

Weather History for KP69 - February, 2013

Change the Weather History Date:

Monday, February 18, 2013

  Actual Average Record
Temperature  
Mean Temperature 39 °F -  
Max Temperature 48 °F 44 °F 55 °F (2015)
Min Temperature 32 °F 28 °F 6 °F (2006)
Degree Days  
Heating Degree Days 26    
Moisture  
Dew Point 33 °F    
Average Humidity 84    
Maximum Humidity 96    
Minimum Humidity 50    
Precipitation  
Precipitation 0.00 in - - ()
Sea Level Pressure  
Sea Level Pressure 30.07 in    
Wind  
Wind Speed 1 mph (SSW)    
Max Wind Speed 5 mph    
Max Gust Speed -    
Averages and records for this station are not official NWS values.
T = Trace of Precipitation, MM = Missing Value Source: NWS Daily Summary

Daily Weather History Graph

Daily Weather History Graph

Search for Another Location

Airport or City:

Trip Planner

Search our weather history database for the weather conditions in past years. The results will help you decide how hot, cold, wet, or windy it might be!

Date:

Astronomy

Feb. 18, 2013 Rise Set
Actual Time 7:38 AM MST 6:13 PM MST
Civil Twilight 7:08 AM MST 6:43 PM MST
Nautical Twilight 6:33 AM MST 7:18 PM MST
Astronomical Twilight 5:59 AM MST 7:52 PM MST
Moon 11:53 AM MST (2/18) 2:31 AM MST (2/18)
Length of Visible Light 11h 35m
Length of Day
10h 34m
First Quarter, 59% of the Moon is Illuminated
Feb 18
First Quarter
Feb 25
Full
Mar 4
Last Quarter
Mar 11
New
Mar 19
First Quarter

Hourly Weather History & Observations

Time (MST) Temp. Windchill Dew Point Humidity Pressure Visibility Wind Dir Wind Speed Gust Speed Precip Events Conditions
12:52 AM 35.1 °F - 33.1 °F 92% 30.22 in - Calm Calm - N/A   Unknown
1:52 AM 35.1 °F 32.2 °F 33.1 °F 92% 30.22 in - South 3.5 mph - N/A   Unknown
2:52 AM 35.1 °F 31.0 °F 33.1 °F 92% 30.22 in - SW 4.6 mph - N/A   Unknown
3:52 AM 35.1 °F 32.2 °F 33.1 °F 92% 30.21 in - SSW 3.5 mph - N/A   Unknown
4:52 AM 34.0 °F - 32.0 °F 92% 30.20 in - Calm Calm - N/A   Unknown
5:52 AM 34.0 °F - 30.9 °F 89% 30.19 in - Calm Calm - N/A   Unknown
6:52 AM 33.1 °F 30.0 °F 30.0 °F 89% 30.19 in - South 3.5 mph - N/A   Unknown
7:52 AM 33.1 °F 28.7 °F 28.9 °F 85% 30.18 in - Variable 4.6 mph - N/A   Unknown
8:52 AM 32.0 °F - 30.0 °F 92% 30.18 in - Calm Calm - N/A   Unknown
9:52 AM 36.0 °F - 30.9 °F 82% 30.15 in - Calm Calm - N/A   Unknown
10:52 AM 37.0 °F - 30.9 °F 79% 30.13 in - Calm Calm - N/A   Unknown
11:52 AM 39.9 °F 37.8 °F 32.0 °F 73% 30.10 in - North 3.5 mph - N/A   Unknown
12:52 PM 44.1 °F 42.5 °F 32.0 °F 63% 30.06 in - North 3.5 mph - N/A   Unknown
1:52 PM 46.9 °F - 28.9 °F 50% 30.01 in - Calm Calm - N/A   Unknown
2:52 PM 46.0 °F - 34.0 °F 63% 29.98 in - Calm Calm - N/A   Unknown
3:52 PM 44.1 °F - 36.0 °F 73% 29.96 in - Calm Calm - N/A   Unknown
4:52 PM 41.0 °F - 36.0 °F 82% 29.95 in - Calm Calm - N/A   Unknown
5:52 PM 39.0 °F - 35.1 °F 86% 29.95 in - Calm Calm - N/A   Unknown
6:52 PM 37.0 °F - 35.1 °F 93% 29.94 in - Calm Calm - N/A   Unknown
7:52 PM 37.0 °F - 34.0 °F 89% 29.94 in - Calm Calm - N/A   Unknown
8:52 PM 36.0 °F - 34.0 °F 93% 29.93 in - Calm Calm - N/A   Unknown
9:52 PM 35.1 °F - 34.0 °F 96% 29.91 in - Calm Calm - N/A   Unknown
10:52 PM 35.1 °F - 33.1 °F 92% 29.91 in - Calm Calm - N/A   Unknown
11:52 PM 35.1 °F - 33.1 °F 92% 29.89 in - Calm Calm - N/A   Unknown